Home   Weather   Ludwigsburg   Past weeks

Flag for Germany Past Weather in Ludwigsburg, Baden-Württemberg, Germany — Yesterday and Last 2 Weeks

Now
50 °F

Light fog.


Feels Like: 50 °F
Forecast: 51 / 75 °F
Wind: 2 mph from North

Location: Stuttgart-Echterdingen

Current Time: Sep 28, 2016 at 8:58:48 AM

Latest Report: Sep 28, 2016 at 8:20 AM


Visibility: 5 mi

Pressure: 30.39 "Hg

Humidity: 94%

Dew Point: 48 °F

Location of LudwigsburgLocation

Past Weather in Ludwigsburg — Graph

°F

Ludwigsburg Temperature Yesterday

Maximum temperature yesterday: 66 °F (at 3:20 PM)
Minimum temperature yesterday: 54 °F (at 11:50 PM)
Average temperature yesterday: 60 °F

High & Low Weather Summary for the Past Weeks

 TemperatureHumidityPressure
High88 °F (Sep 13, 2:50 PM)100% (Sep 13, 7:20 AM)30.39 "Hg (Sep 13, 7:20 AM)
Low41 °F (Sep 22, 5:50 AM)29% (Sep 13, 3:50 PM)29.83 "Hg (Sep 15, 3:20 AM)
Average60 °F76%30.09 "Hg
* Reported Sep 13 7:20 AM — Sep 28 7:20 AM, Ludwigsburg, Weather by CustomWeather, © 2016

Note: Actual official high and low records may vary slightly from our data, if they occured in-between our weather recording intervals... More about our weather records

Advertising

Ludwigsburg Weather History for the Previous 24 Hours

Scroll right to see more
 ConditionsComfort  
Time TempWeatherWind HumidityBarometerVisibility
7:20 AM
Wed, Sep 28
48 °FLight fog.2 mph94%30.39 "Hg4 mi
6:50 AM48 °FLight fog.2 mph100%30.39 "Hg5 mi
6:20 AM48 °FFog.3 mph100%30.36 "Hg4 mi
5:50 AM48 °FFog.1 mph100%30.39 "Hg3 mi
5:20 AM48 °FFog.No wind100%30.39 "Hg3 mi
4:50 AM48 °FFog.1 mph100%30.39 "Hg6 mi
4:20 AM50 °FFog.1 mph94%30.39 "Hg6 mi
3:50 AM50 °FFog.1 mph94%30.36 "Hg2 mi
3:20 AM50 °FFog.2 mph100%30.36 "Hg6 mi
2:50 AM52 °FClear.1 mph94%30.39 "Hg10 mi
2:20 AM52 °FClear.1 mph94%30.39 "Hg10 mi
1:50 AM52 °FClear.2 mph100%30.39 "Hg10 mi
1:20 AM52 °FClear.1 mph100%30.39 "Hg10 mi
12:50 AM54 °FClear.1 mph94%30.39 "Hg10 mi
12:20 AM54 °FClear.2 mph94%30.39 "Hg10 mi
11:50 PM
Tue, Sep 27
54 °FClear.2 mph94%30.39 "Hg10 mi
11:20 PM55 °FClear.1 mph88%30.36 "Hg10 mi
10:50 PM55 °FClear.3 mph94%30.36 "Hg10 mi
10:20 PM55 °FClear.1 mph94%30.36 "Hg10 mi
9:50 PM55 °FClear.2 mph94%30.36 "Hg10 mi
9:20 PM57 °FClear.5 mph88%30.36 "Hg10 mi
8:50 PM59 °FClear.2 mph82%30.36 "Hg10 mi
8:20 PM61 °FClear.3 mph83%30.36 "Hg10 mi
7:50 PM61 °FClear.1 mph83%30.36 "Hg10 mi
7:20 PM63 °FClear.1 mph73%30.33 "Hg10 mi
6:50 PM64 °FPassing clouds.3 mph73%30.33 "HgN/A
6:20 PM66 °FPassing clouds.1 mph68%30.33 "HgN/A
5:50 PM66 °FPassing clouds.3 mph68%30.33 "HgN/A
5:20 PM66 °FPassing clouds.3 mph68%30.33 "HgN/A
4:50 PM66 °FPassing clouds.3 mph68%30.33 "HgN/A
4:20 PM66 °FPassing clouds.5 mph68%30.33 "HgN/A
3:50 PM66 °FPassing clouds.2 mph64%30.33 "HgN/A
3:20 PM66 °FPassing clouds.3 mph68%30.33 "HgN/A
2:50 PM64 °FScattered clouds.3 mph73%30.33 "HgN/A
2:20 PM64 °FScattered clouds.5 mph73%30.33 "HgN/A
1:50 PM64 °FPartly sunny.6 mph73%30.33 "HgN/A
1:20 PM63 °FPartly sunny.3 mph77%30.33 "HgN/A
12:50 PM63 °FPartly sunny.6 mph77%30.33 "HgN/A
12:20 PM59 °FPartly sunny.6 mph88%30.33 "HgN/A
11:50 AM59 °FPartly sunny.3 mph88%30.33 "HgN/A
11:20 AM59 °FPartly sunny.2 mph88%30.30 "HgN/A
10:50 AM59 °FPartly sunny.2 mph88%30.30 "HgN/A
10:20 AM59 °FBroken clouds.1 mph88%30.30 "HgN/A
9:50 AM57 °FBroken clouds.2 mph94%30.30 "HgN/A
9:20 AM57 °FSprinkles. Partly sunny.5 mph94%30.27 "HgN/A
8:50 AM55 °FSprinkles. Partly sunny.1 mph94%30.27 "HgN/A
8:20 AM55 °FPartly sunny.2 mph94%30.27 "HgN/A
Weather by CustomWeather, © 2016

See weather overviewHow to use our weather pages